DELTA 1 DEB, 12532

Orbit data source: Space-Track

DELTA 1 DEB, 12532 is space debris in SSO originally from a launch on Thu, 29 Jul 1976 UTC launched from the Air Force Western Test Range (AFWTR). Debris objects in space refer to the collection of defunct objects orbiting the Earth. Examples of debris include non-operational satellites, rocket bodies, and fragments generated from explosions, collisions, or faulty payload assembly.

Loading next visibility...
Identifier
12532, 1976-077DM
Orbit
SSO
Country
Flag of USUS
Related business
Manufacturer
Unknown
Mission
Spacecraft
Bus & Motor
Unknown
Mass
Unknown
Launch date (UTC)
1976-07-29 (50 years ago)
Launch vehicle
Unknown
Launch site
Air Force Western Test Range (AFWTR)
Object type
Payload
Rocket body
Debris
Shape & HBR
Unknown shape, 0.1 m
Radar Cross Section
Medium (>0.1 m² and <1 m²)

Expand to show TLE details & history
Last TLE update: 3 days ago

TLE from 3 days ago
0 DELTA 1 DEB
1 12532U 76077DM  26170.94021287  .00000856  00000-0  36307-2 0  9999
2 12532 102.1362 169.0510 0236528 279.0562 137.4056 12.78396001381161
Epoch: 2026-06-19T22:33Z
TLE epoch observation values (Epoch: 2026-06-19T22:33:54.391Z)
Latitude
56.33722°
Longitude
-96.33053°
Altitude
1,493.6 km
Speed
7.059 km/s
True Right ascension
10h 01m 13s
True Declination
56° 11' 36"
Sunlit
Object was in daylight at epoch
Visualization orbit readout
Latitude
Unknown
Longitude
Unknown
Altitude
Unknown
Speed
Unknown
Apparent Right ascension
Unknown
Apparent Declination
Unknown
Sunlit
N/A
Visualization observer readout
Local Sidereal Time
10:03:09
Azimuth
Unknown
Elevation
Unknown
Doppler factor
Unknown
Orbital elements
Apogee altitude
1,528.142 km
Perigee altitude
1,162.772 km
Semi-major axis
7,723.594 km
Eccentricity
0.02365
Inclination
102.1362°
RAAN
169.051°
Arg. of periapsis
279.0562°
True anomaly
139.20062°
Mean anomaly
137.4056°
Eccentric anomaly
138.307°
Mean motion
3.19753 °/min
Orbital period
112.59 mins
BSTAR
0.0036307
Loading maneuver chart data...
Computing Atmospheric mass density...
Loading historical data...
Loading historical data...
Loading historical data...
Loading historical data...
Loading historical data...
Loading historical data...
Loading historical data...

Documentation

Showing up to 5 results
|